When you browse on this site, cookies collect data to enhance your experience and personalize the content and advertising you see.
Visit our Privacy Policy to learn more. By continuing to use the site, you agree to this use of cookies and data.
  • In United Kingdom
  • List of Countries
  • For 7 days
  • Water Temperature
  • Satellite Maps
  • Weather Map
  • Weather Widgets
  • user-avatar
    Login

    Hourly Weather Akra

    Today, 19 November, Monday

    Time Temperature Precipitation Wind Pressure Humidity
    00:00 +28°C° 0.2 mm 2 mps 757 mmHg 83%
    01:00 +28°C° 0 mm 2 mps 757 mmHg 84%
    02:00 +27°C° 0 mm 2 mps 756 mmHg 85%
    03:00 +27°C° 0 mm 2 mps 756 mmHg 87%
    04:00 +27°C° 0 mm 2 mps 756 mmHg 87%
    05:00 +27°C° 0 mm 2 mps 757 mmHg 88%
    06:00 +27°C° 0 mm 2 mps 757 mmHg 88%
    07:00 +29°C° 0 mm 2 mps 757 mmHg 80%
    08:00 +30°C° 0 mm 2 mps 758 mmHg 72%
    09:00 +32°C° 0 mm 2 mps 758 mmHg 64%
    10:00 +35°C° 0 mm 3 mps 758 mmHg 59%
    11:00 +36°C° 0 mm 3 mps 757 mmHg 54%
    12:00 +37°C° 0 mm 3 mps 757 mmHg 48%
    13:00 +37°C° 0.2 mm 4 mps 756 mmHg 52%
    14:00 +36°C° 0.2 mm 4 mps 756 mmHg 55%
    15:00 +35°C° 0.2 mm 4 mps 755 mmHg 58%
    16:00 +34°C° 0 mm 4 mps 755 mmHg 63%
    17:00 +33°C° 0 mm 4 mps 755 mmHg 67%
    18:00 +30°C° 0 mm 4 mps 756 mmHg 72%
    19:00 +30°C° 0 mm 4 mps 756 mmHg 74%
    20:00 +29°C° 0 mm 4 mps 757 mmHg 77%
    21:00 +29°C° 0 mm 3 mps 757 mmHg 80%
    22:00 +29°C° 0 mm 3 mps 757 mmHg 81%
    23:00 +28°C° 0 mm 3 mps 757 mmHg 82%

    Tomorrow, 20 November, Tuesday

    Time Temperature Precipitation Wind Pressure Humidity
    00:00 +28°C° 0 mm 3 mps 757 mmHg 83%
    01:00 +28°C° 0 mm 4 mps 757 mmHg 84%
    02:00 +28°C° 0 mm 4 mps 757 mmHg 85%
    03:00 +27°C° 0 mm 4 mps 756 mmHg 86%
    04:00 +27°C° 0 mm 4 mps 756 mmHg 88%
    05:00 +27°C° 0 mm 4 mps 757 mmHg 89%
    06:00 +27°C° 0 mm 4 mps 757 mmHg 90%
    07:00 +28°C° 0 mm 4 mps 757 mmHg 85%
    08:00 +29°C° 0 mm 4 mps 758 mmHg 80%
    09:00 +30°C° 0 mm 4 mps 758 mmHg 75%
    10:00 +33°C° 0 mm 4 mps 758 mmHg 68%
    11:00 +34°C° 0 mm 4 mps 758 mmHg 62%
    12:00 +35°C° 0 mm 4 mps 758 mmHg 55%
    13:00 +36°C° 0 mm 5 mps 757 mmHg 54%
    14:00 +36°C° 0 mm 5 mps 756 mmHg 52%
    15:00 +37°C° 0 mm 5 mps 756 mmHg 50%
    16:00 +35°C° 0 mm 5 mps 756 mmHg 58%
    17:00 +34°C° 0 mm 5 mps 756 mmHg 66%
    18:00 +32°C° 0 mm 5 mps 756 mmHg 73%
    19:00 +30°C° 0.2 mm 5 mps 757 mmHg 77%
    20:00 +30°C° 0.2 mm 5 mps 758 mmHg 81%
    21:00 +29°C° 0.2 mm 5 mps 758 mmHg 85%
    22:00 +29°C° 0.1 mm 5 mps 758 mmHg 86%
    23:00 +28°C° 0.1 mm 5 mps 758 mmHg 86%

    Day after tomorrow, 21 November, Wednesday

    Time Temperature Precipitation Wind Pressure Humidity
    00:00 +28°C° 0.1 mm 5 mps 758 mmHg 87%
    01:00 +28°C° 0 mm 5 mps 757 mmHg 88%
    02:00 +28°C° 0 mm 5 mps 757 mmHg 89%
    03:00 +27°C° 0 mm 5 mps 756 mmHg 89%
    04:00 +27°C° 0 mm 5 mps 757 mmHg 90%
    05:00 +27°C° 0 mm 5 mps 757 mmHg 91%
    06:00 +27°C° 0 mm 5 mps 757 mmHg 92%
    07:00 +28°C° 0 mm 5 mps 758 mmHg 84%
    08:00 +30°C° 0 mm 5 mps 758 mmHg 76%
    09:00 +33°C° 0 mm 5 mps 759 mmHg 68%
    10:00 +34°C° 0 mm 5 mps 758 mmHg 62%
    11:00 +36°C° 0 mm 5 mps 758 mmHg 56%
    12:00 +37°C° 0 mm 5 mps 757 mmHg 50%
    13:00 +37°C° 0.1 mm 5 mps 757 mmHg 51%
    14:00 +36°C° 0.1 mm 6 mps 756 mmHg 53%
    15:00 +36°C° 0.1 mm 6 mps 755 mmHg 55%
    16:00 +34°C° 0.2 mm 6 mps 756 mmHg 64%
    17:00 +33°C° 0.2 mm 6 mps 756 mmHg 73%
    18:00 +30°C° 0.2 mm 6 mps 756 mmHg 81%
    19:00 +30°C° 0 mm 6 mps 757 mmHg 83%
    20:00 +29°C° 0 mm 6 mps 758 mmHg 85%
    21:00 +29°C° 0 mm 6 mps 758 mmHg 87%
    22:00 +28°C° 0 mm 6 mps 758 mmHg 87%
    23:00 +28°C° 0 mm 6 mps 758 mmHg 88%

    22 November, Thursday

    Time Temperature Precipitation Wind Pressure Humidity
    00:00 +28°C° 0 mm 6 mps 758 mmHg 89%
    01:00 +28°C° 0 mm 6 mps 757 mmHg 89%
    02:00 +28°C° 0 mm 6 mps 757 mmHg 90%
    03:00 +27°C° 0 mm 6 mps 756 mmHg 91%
    04:00 +27°C° 0 mm 6 mps 756 mmHg 91%
    05:00 +27°C° 0 mm 6 mps 757 mmHg 92%
    06:00 +27°C° 0 mm 5 mps 757 mmHg 92%
    07:00 +29°C° 0.1 mm 5 mps 758 mmHg 85%
    08:00 +30°C° 0.1 mm 5 mps 758 mmHg 77%
    09:00 +33°C° 0.1 mm 5 mps 759 mmHg 70%
    10:00 +34°C° 0.2 mm 5 mps 758 mmHg 65%
    11:00 +35°C° 0.2 mm 5 mps 758 mmHg 59%
    12:00 +37°C° 0.2 mm 5 mps 757 mmHg 54%
    13:00 +36°C° 0.3 mm 5 mps 756 mmHg 57%
    14:00 +35°C° 0.3 mm 6 mps 756 mmHg 61%
    15:00 +34°C° 0.3 mm 6 mps 755 mmHg 64%
    16:00 +33°C° 0 mm 6 mps 756 mmHg 69%
    17:00 +32°C° 0 mm 5 mps 756 mmHg 74%
    18:00 +30°C° 0 mm 5 mps 756 mmHg 79%
    19:00 +29°C° 0 mm 5 mps 757 mmHg 80%
    20:00 +29°C° 0 mm 4 mps 757 mmHg 82%
    21:00 +29°C° 0 mm 4 mps 758 mmHg 83%
    22:00 +28°C° 0 mm 4 mps 758 mmHg 85%
    23:00 +28°C° 0 mm 4 mps 757 mmHg 87%

    23 November, Friday

    Time Temperature Precipitation Wind Pressure Humidity
    00:00 +28°C° 0 mm 4 mps 757 mmHg 88%
    01:00 +27°C° 0 mm 4 mps 756 mmHg 90%
    02:00 +27°C° 0 mm 4 mps 756 mmHg 91%
    03:00 +27°C° 0 mm 4 mps 756 mmHg 92%
    04:00 +27°C° 0 mm 4 mps 756 mmHg 93%
    05:00 +27°C° 0 mm 4 mps 756 mmHg 94%
    06:00 +27°C° 0 mm 4 mps 757 mmHg 94%
    07:00 +28°C° 0 mm 3 mps 757 mmHg 86%
    08:00 +30°C° 0 mm 3 mps 758 mmHg 78%
    09:00 +33°C° 0 mm 3 mps 758 mmHg 70%
    10:00 +34°C° 0 mm 3 mps 757 mmHg 66%
    11:00 +35°C° 0 mm 3 mps 757 mmHg 62%
    12:00 +35°C° 0 mm 3 mps 757 mmHg 57%
    13:00 +36°C° 0 mm 3 mps 756 mmHg 56%
    14:00 +36°C° 0 mm 4 mps 755 mmHg 55%
    15:00 +36°C° 0 mm 4 mps 755 mmHg 54%
    16:00 +35°C° 0 mm 4 mps 755 mmHg 60%
    17:00 +33°C° 0 mm 4 mps 755 mmHg 66%
    18:00 +32°C° 0 mm 4 mps 756 mmHg 72%
    19:00 +30°C° 0 mm 4 mps 756 mmHg 75%
    20:00 +30°C° 0 mm 4 mps 757 mmHg 78%
    21:00 +29°C° 0 mm 4 mps 757 mmHg 81%
    22:00 +29°C° 0 mm 4 mps 757 mmHg 83%
    23:00 +28°C° 0 mm 4 mps 757 mmHg 85%

    24 November, Saturday

    Time Temperature Precipitation Wind Pressure Humidity
    00:00 +28°C° 0 mm 4 mps 757 mmHg 86%
    01:00 +28°C° 0.1 mm 3 mps 756 mmHg 88%
    02:00 +27°C° 0.1 mm 3 mps 756 mmHg 89%
    03:00 +27°C° 0.1 mm 3 mps 756 mmHg 90%
    04:00 +27°C° 0.1 mm 3 mps 756 mmHg 91%
    05:00 +27°C° 0.1 mm 3 mps 757 mmHg 93%
    06:00 +27°C° 0.1 mm 3 mps 757 mmHg 94%
    07:00 +28°C° 0 mm 3 mps 757 mmHg 85%
    08:00 +30°C° 0 mm 3 mps 758 mmHg 76%
    09:00 +33°C° 0 mm 4 mps 758 mmHg 67%
    10:00 +34°C° 0 mm 4 mps 757 mmHg 61%
    11:00 +36°C° 0 mm 4 mps 757 mmHg 54%
    12:00 +37°C° 0 mm 4 mps 756 mmHg 47%
    13:00 +37°C° 0 mm 4 mps 756 mmHg 47%
    14:00 +37°C° 0 mm 4 mps 755 mmHg 46%
    15:00 +39°C° 0 mm 5 mps 755 mmHg 46%
    16:00 +36°C° 0 mm 5 mps 755 mmHg 52%
    17:00 +34°C° 0 mm 5 mps 755 mmHg 59%
    18:00 +32°C° 0 mm 5 mps 756 mmHg 66%
    19:00 +32°C° 0 mm 4 mps 756 mmHg 69%
    20:00 +30°C° 0 mm 4 mps 757 mmHg 72%
    21:00 +29°C° 0 mm 4 mps 757 mmHg 75%
    22:00 +29°C° 0 mm 4 mps 757 mmHg 77%
    23:00 +29°C° 0 mm 4 mps 757 mmHg 78%
    Show more